Find Starlink 31494

NORAD ID: 59238 Int'l Des: 2024-049 Owner: SPXS Country: US Constellation: starlink operational
LEOCIRCULAR

現在のビュー

3D地球を読み込み中...

About Starlink 31494

Starlink 31494 (NORAD 59238) is a starlink constellation satellite (v2 mini) launched Mar 16, 2024 by SPXS of US. It operates in LEO, CIRCULAR orbit with a mass of 730.00 kg.

Starlink 31494について

説明を読み込み中...

次回通過

Passes for default location (London). Set your location on the main map for personalized predictions.

高度履歴

Loading altitude history...

軌道要素

1 59238U 24049H 26177.91653562 -.00000416 00000-0 -55977-5 0 9997
2 59238 43.0029 246.4486 0001456 264.0836 95.9850 15.27573819129114
Epoch: Jun 26, 2026 • Age: 12 hours

現在のステータス

高度 488.5 km
速度 7.62 km/s
衛星直下点 -24.95°S, 28.89°E
打ち上げ日 Mar 16, 2024
運用期間 2.2 years
タイプ internet

技術仕様

分類 Payload
質量 730.00 kg
乾燥質量 700.00 kg
総質量 730.00 kg
長さ 0.30 m
直径 4.10 m
スパン 29.00 m
形状 Box + pan
製造者 SPXS
バスタイプ Starlink V2M
フェーズステータス In Orbit
所有者/国 SPXS/US

Most Searched